Voltar ao catálogo

FENGYUN 1C DEB

AtivoSSO
NORAD 31091·DEBRIS·🇨🇳 China

Lançado May 10, 1999 de Taiyuan Satellite Launch Center

Loading…

Próximas Passagens (próximas 24 horas)

TLE

AtualizadoSource: Space-Track

Época: Sep 12, 2026, 20:48 UTC

1 31091U 99025BGM 26255.86734846  .00000358  00000-0  44794-3 0  9992
2 31091  99.2524 220.4257 0289092 352.5406   7.1478 13.54482229653500

Acompanhe FENGYUN 1C DEB em tempo real com AllMySat

Download on the App Store